NPV7592 LIML-LIEE

Flight info

Callsign NPV7592
Flight time 1h 4m
Altitude 35000
Route ITCAP DCT OTMUV DCT UNITA DCT ERTEV DCT TORTU DCT OKROK DCT AJO DCT CORSI DCT UPDUT DCT INDUM DCT MINKA DCT ORVEX DCT BOLOT M858 RAMEN M732 KOVAS
Aircraft A320/M-SDE3FGHIRWY/LB1

Departure

Time 2026-05-04 10:30
Airport Milano Linate Airport (LIML)

Arrival

Time 2026-05-04 11:35
Airport Cagliari Elmas Airport (LIEE)
Time Latitude Longitude Altitude Speed Heading
2026-05-04 09:55 45.45774 9.27893 360 ft 0 kts 90°
2026-05-04 10:20 45.45774 9.27892 360 ft 0 kts 90°
2026-05-04 10:25 45.45484 9.27978 362 ft 23 kts 180°
2026-05-04 10:25 45.45355 9.27945 362 ft 18 kts 210°
2026-05-04 10:25 45.45237 9.27879 360 ft 19 kts 194°
2026-05-04 10:25 45.45099 9.27878 363 ft 21 kts 176°
2026-05-04 10:26 45.44952 9.27899 362 ft 22 kts 167°
2026-05-04 10:26 45.44799 9.27944 360 ft 23 kts 174°
2026-05-04 10:26 45.44633 9.27961 363 ft 25 kts 176°
2026-05-04 10:26 45.44458 9.27981 360 ft 26 kts 176°
2026-05-04 10:27 45.44274 9.28001 360 ft 27 kts 176°
2026-05-04 10:27 45.44080 9.28021 360 ft 28 kts 175°
2026-05-04 10:27 45.43880 9.28043 365 ft 29 kts 176°
2026-05-04 10:27 45.43672 9.28065 361 ft 30 kts 175°
2026-05-04 10:28 45.43513 9.28083 363 ft 18 kts 176°
2026-05-04 10:28 45.43447 9.28017 361 ft 12 kts 262°
2026-05-04 10:28 45.43444 9.27978 361 ft 0 kts 265°
2026-05-04 10:29 45.43444 9.27973 361 ft 4 kts 265°
2026-05-04 10:29 45.43447 9.27866 362 ft 13 kts 291°
2026-05-04 10:29 45.43536 9.27811 361 ft 20 kts 354°
2026-05-04 10:29 45.43847 9.27777 359 ft 80 kts 356°
2026-05-04 10:30 45.44562 9.27700 366 ft 135 kts 355°
2026-05-04 10:30 45.45592 9.27608 774 ft 149 kts 355°
2026-05-04 10:30 45.46630 9.27593 1467 ft 153 kts 10°
2026-05-04 10:30 45.47534 9.28431 2060 ft 167 kts 59°
2026-05-04 10:31 45.47834 9.29998 2971 ft 165 kts 95°
2026-05-04 10:31 45.47502 9.31499 3689 ft 162 kts 128°
2026-05-04 10:32 45.40039 9.39495 6645 ft 269 kts 151°
2026-05-04 10:33 45.38415 9.40826 7571 ft 270 kts 150°
2026-05-04 10:33 45.36777 9.42181 8471 ft 274 kts 152°
2026-05-04 10:33 45.35116 9.43557 9407 ft 278 kts 152°
2026-05-04 10:33 45.33437 9.44950 10294 ft 282 kts 152°
2026-05-04 10:34 45.31679 9.46408 10695 ft 305 kts 152°
2026-05-04 10:34 45.29792 9.47973 11172 ft 321 kts 152°
2026-05-04 10:34 45.27871 9.49569 11915 ft 326 kts 152°
2026-05-04 10:34 45.25896 9.51211 12721 ft 330 kts 152°
2026-05-04 10:35 45.23897 9.52872 13495 ft 334 kts 152°
2026-05-04 10:35 45.21980 9.54806 14264 ft 341 kts 145°
2026-05-04 10:35 45.19949 9.56426 15002 ft 340 kts 162°
2026-05-04 10:35 45.17687 9.57426 15714 ft 342 kts 166°
2026-05-04 10:36 45.15372 9.58323 16424 ft 345 kts 166°
2026-05-04 10:36 45.13054 9.59253 17085 ft 349 kts 166°
2026-05-04 10:36 45.10659 9.59841 17770 ft 351 kts 177°
2026-05-04 10:36 45.08196 9.59737 18447 ft 354 kts 188°
2026-05-04 10:37 45.05818 9.58920 18989 ft 357 kts 200°
2026-05-04 10:37 45.04312 9.57942 19334 ft 360 kts 208°
2026-05-04 10:37 45.02119 9.56167 19891 ft 363 kts 209°
2026-05-04 10:37 44.99192 9.53782 20617 ft 368 kts 210°
2026-05-04 10:39 44.86289 9.43319 23513 ft 387 kts 210°
2026-05-04 10:39 44.83926 9.41409 23953 ft 391 kts 210°
2026-05-04 10:39 44.81558 9.39500 24394 ft 393 kts 210°
2026-05-04 10:40 44.79180 9.37583 24821 ft 395 kts 210°
2026-05-04 10:40 44.76820 9.35687 25240 ft 397 kts 210°
2026-05-04 10:40 44.74415 9.33756 25685 ft 399 kts 210°
2026-05-04 10:40 44.71995 9.31813 26089 ft 401 kts 210°
2026-05-04 10:41 44.69563 9.29863 26514 ft 403 kts 210°
2026-05-04 10:41 44.67117 9.27900 26928 ft 406 kts 210°
2026-05-04 10:41 44.64656 9.25923 27336 ft 407 kts 211°
2026-05-04 10:41 44.62183 9.23944 27750 ft 408 kts 211°
2026-05-04 10:42 44.59735 9.21990 28098 ft 410 kts 211°
2026-05-04 10:42 44.57239 9.20002 28439 ft 414 kts 211°
2026-05-04 10:42 44.54739 9.18009 28739 ft 415 kts 211°
2026-05-04 10:42 44.52217 9.16001 29086 ft 417 kts 211°
2026-05-04 10:43 44.49713 9.14008 29430 ft 420 kts 211°
2026-05-04 10:44 44.29691 9.06711 31529 ft 442 kts 188°
2026-05-04 10:45 44.26620 9.06340 31833 ft 443 kts 188°
2026-05-04 10:45 44.23549 9.05965 32202 ft 442 kts 188°
2026-05-04 10:45 44.20482 9.05594 32560 ft 442 kts 188°
2026-05-04 10:45 44.17450 9.05228 32915 ft 441 kts 188°
2026-05-04 10:46 44.14385 9.04862 33273 ft 441 kts 189°
2026-05-04 10:46 44.11318 9.04498 33628 ft 441 kts 189°
2026-05-04 10:46 44.08257 9.04135 33977 ft 440 kts 189°
2026-05-04 10:46 44.05244 9.03780 34301 ft 440 kts 189°
2026-05-04 10:47 44.02193 9.03419 34599 ft 439 kts 189°
2026-05-04 10:47 43.99136 9.03057 34886 ft 439 kts 189°
2026-05-04 10:47 43.96081 9.02696 35091 ft 439 kts 189°
2026-05-04 10:49 43.72573 8.97703 35124 ft 427 kts 194°
2026-05-04 10:50 43.66686 8.96441 35116 ft 427 kts 194°
2026-05-04 10:52 43.42660 8.95821 35095 ft 434 kts 185°
2026-05-04 10:52 43.36617 8.95731 35091 ft 432 kts 188°
2026-05-04 10:54 43.12782 8.92785 35079 ft 430 kts 191°
2026-05-04 10:56 42.88981 8.90074 35070 ft 430 kts 191°
2026-05-04 10:57 42.83017 8.89390 35067 ft 430 kts 191°
2026-05-04 10:57 42.77079 8.88714 35063 ft 430 kts 191°
2026-05-04 10:58 42.71097 8.88029 35059 ft 431 kts 191°
2026-05-04 10:58 42.65102 8.87345 35062 ft 432 kts 191°
2026-05-04 10:59 42.59134 8.86667 35066 ft 432 kts 192°
2026-05-04 10:59 42.53123 8.85990 35066 ft 432 kts 192°
2026-05-04 11:00 42.47154 8.85317 35071 ft 432 kts 192°
2026-05-04 11:02 42.23191 8.82596 35073 ft 433 kts 192°
2026-05-04 11:05 41.78157 8.77587 35087 ft 434 kts 192°
2026-05-04 11:06 41.72017 8.77898 35089 ft 442 kts 184°
2026-05-04 11:06 41.65910 8.78443 35079 ft 441 kts 184°
2026-05-04 11:10 41.23017 8.84807 35078 ft 442 kts 185°
2026-05-04 11:12 41.01743 8.85095 34771 ft 435 kts 188°
2026-05-04 11:12 40.98726 8.85137 34530 ft 432 kts 188°
2026-05-04 11:12 40.95724 8.85185 34288 ft 431 kts 188°
2026-05-04 11:12 40.92728 8.85256 34040 ft 428 kts 187°
2026-05-04 11:13 40.89764 8.85341 33550 ft 425 kts 187°
2026-05-04 11:13 40.86812 8.85428 33031 ft 422 kts 187°
2026-05-04 11:13 40.83883 8.85510 32524 ft 419 kts 187°
2026-05-04 11:13 40.80977 8.85595 32017 ft 418 kts 186°
2026-05-04 11:14 40.80031 8.85638 31856 ft 417 kts 185°
2026-05-04 11:16 40.52686 8.87992 27269 ft 391 kts 181°
2026-05-04 11:16 40.49978 8.88211 26811 ft 389 kts 181°
2026-05-04 11:16 40.47320 8.88422 26348 ft 387 kts 181°
2026-05-04 11:17 40.44607 8.88640 25877 ft 385 kts 181°
2026-05-04 11:17 40.41961 8.88855 25391 ft 385 kts 180°
2026-05-04 11:19 40.23463 8.90412 21799 ft 360 kts 179°
2026-05-04 11:19 40.20969 8.90618 21330 ft 359 kts 179°
2026-05-04 11:19 40.18481 8.90817 20860 ft 358 kts 179°
2026-05-04 11:19 40.15999 8.91012 20395 ft 357 kts 179°
2026-05-04 11:20 40.13516 8.91208 19918 ft 357 kts 179°
2026-05-04 11:20 40.11038 8.91409 19448 ft 356 kts 179°
2026-05-04 11:20 40.08580 8.91614 18992 ft 351 kts 178°
2026-05-04 11:20 40.06167 8.91819 18540 ft 343 kts 178°
2026-05-04 11:22 39.90094 8.93130 15524 ft 327 kts 179°
2026-05-04 11:22 39.87855 8.93313 15123 ft 317 kts 179°
2026-05-04 11:23 39.85685 8.93493 14723 ft 308 kts 179°
2026-05-04 11:23 39.83537 8.93672 14333 ft 311 kts 179°
2026-05-04 11:24 39.72043 9.00855 11887 ft 304 kts 149°
2026-05-04 11:25 39.70251 9.02338 11460 ft 305 kts 149°
2026-05-04 11:25 39.68473 9.03811 11046 ft 301 kts 150°
2026-05-04 11:25 39.66718 9.05266 10630 ft 297 kts 149°
2026-05-04 11:26 39.62969 9.07078 9611 ft 290 kts 176°
2026-05-04 11:27 39.50353 9.04648 6404 ft 227 kts 216°
2026-05-04 11:28 39.49083 9.03439 6010 ft 224 kts 216°
2026-05-04 11:28 39.47836 9.02264 5660 ft 219 kts 215°
2026-05-04 11:28 39.46614 9.01114 5355 ft 214 kts 215°
2026-05-04 11:28 39.45425 8.99998 5074 ft 208 kts 214°
2026-05-04 11:29 39.44251 8.98901 4787 ft 209 kts 214°
2026-05-04 11:29 39.43078 8.97799 4454 ft 211 kts 213°
2026-05-04 11:29 39.41908 8.96698 4156 ft 204 kts 213°
2026-05-04 11:29 39.40777 8.95630 3885 ft 198 kts 213°
2026-05-04 11:31 39.33993 8.95167 2125 ft 146 kts 137°
2026-05-04 11:33 39.29069 9.00887 867 ft 133 kts 142°
2026-05-04 11:33 39.28379 9.01693 686 ft 133 kts 142°
2026-05-04 11:33 39.27699 9.02486 511 ft 131 kts 143°
2026-05-04 11:34 39.27023 9.03267 330 ft 131 kts 143°
2026-05-04 11:34 39.26348 9.04040 162 ft 130 kts 142°
2026-05-04 11:34 39.25682 9.04814 41 ft 127 kts 144°
2026-05-04 11:34 39.25077 9.05506 16 ft 95 kts 139°
2026-05-04 11:35 39.24753 9.05884 15 ft 36 kts 138°
2026-05-04 11:35 39.24686 9.06039 15 ft 19 kts 81°
2026-05-04 11:35 39.24726 9.06149 15 ft 5 kts 29°
2026-05-04 11:35 39.24761 9.06147 15 ft 6 kts 341°
2026-05-04 11:36 39.24823 9.06078 15 ft 14 kts 316°
2026-05-04 11:36 39.24893 9.05996 15 ft 13 kts 319°
2026-05-04 11:36 39.24959 9.05920 15 ft 12 kts 317°
2026-05-04 11:36 39.25020 9.05850 15 ft 11 kts 318°
2026-05-04 11:37 39.25076 9.05786 15 ft 10 kts 323°
2026-05-04 11:37 39.25132 9.05799 16 ft 9 kts 53°
2026-05-04 11:37 39.25170 9.05851 15 ft 6 kts 15°
2026-05-04 11:37 39.25198 9.05848 15 ft 3 kts 335°
2026-05-04 11:38 39.25230 9.05846 15 ft 4 kts 27°
2026-05-04 11:38 39.25245 9.05862 15 ft 2 kts 47°
2026-05-04 11:38 39.25250 9.05870 15 ft 1 kts 49°
2026-05-04 11:38 39.25252 9.05873 15 ft 0 kts 49°